Time,TemperatureF,DewpointF,PressureIn,WindDirection,WindDirectionDegrees,WindSpeedMPH,WindSpeedGustMPH,Humidity,HourlyPrecipIn,Conditions,Clouds,dailyrainin,SoftwareType,DateUTC
2013-08-12 00:02:00,65.2,63.0,30.03,WSW,240,0.0,0.0,92,0.00,,,0.00,weatherlink.com 1.10,2013-08-12 04:02:00,
2013-08-12 00:18:00,65.0,63.0,30.03,WSW,240,0.0,0.0,92,0.00,,,0.00,weatherlink.com 1.10,2013-08-12 04:18:00,
2013-08-12 00:33:00,64.4,62.0,30.02,WSW,240,0.0,0.0,93,0.00,,,0.00,weatherlink.com 1.10,2013-08-12 04:33:00,
2013-08-12 00:48:00,65.2,64.0,30.02,WSW,240,0.0,0.0,94,0.00,,,0.00,weatherlink.com 1.10,2013-08-12 04:48:00,
2013-08-12 01:03:00,65.1,63.0,30.02,WSW,240,0.0,0.0,94,0.00,,,0.00,weatherlink.com 1.10,2013-08-12 05:03:00,
2013-08-12 01:18:00,65.0,63.0,30.02,WSW,240,0.0,0.0,93,0.00,,,0.00,weatherlink.com 1.10,2013-08-12 05:18:00,
2013-08-12 01:33:00,64.9,63.0,30.02,WSW,240,0.0,0.0,93,0.00,,,0.00,weatherlink.com 1.10,2013-08-12 05:33:00,
2013-08-12 01:48:00,64.5,63.0,30.01,WSW,240,0.0,0.0,93,0.00,,,0.00,weatherlink.com 1.10,2013-08-12 05:48:00,
2013-08-12 02:03:00,64.1,62.0,30.01,WSW,240,0.0,0.0,93,0.00,,,0.00,weatherlink.com 1.10,2013-08-12 06:03:00,
2013-08-12 02:18:00,64.2,63.0,30.01,WSW,240,0.0,0.0,94,0.00,,,0.00,weatherlink.com 1.10,2013-08-12 06:18:00,
2013-08-12 02:33:00,64.0,62.0,30.01,WSW,240,0.0,0.0,93,0.00,,,0.00,weatherlink.com 1.10,2013-08-12 06:33:00,
2013-08-12 02:48:00,64.2,63.0,30.00,WSW,240,0.0,0.0,94,0.00,,,0.00,weatherlink.com 1.10,2013-08-12 06:48:00,
2013-08-12 03:03:00,63.4,61.0,30.00,WSW,240,0.0,0.0,93,0.00,,,0.00,weatherlink.com 1.10,2013-08-12 07:03:00,
2013-08-12 03:18:00,63.5,62.0,30.00,WSW,241,0.0,0.0,94,0.00,,,0.00,weatherlink.com 1.10,2013-08-12 07:18:00,
2013-08-12 03:33:00,63.2,62.0,29.98,WSW,240,0.0,0.0,94,0.00,,,0.00,weatherlink.com 1.10,2013-08-12 07:33:00,
2013-08-12 03:48:00,62.7,61.0,29.98,WSW,240,0.0,0.0,93,0.00,,,0.00,weatherlink.com 1.10,2013-08-12 07:48:00,
2013-08-12 04:03:00,62.4,60.0,29.98,WSW,240,0.0,0.0,93,0.00,,,0.00,weatherlink.com 1.10,2013-08-12 08:03:00,
2013-08-12 04:18:00,62.2,61.0,29.98,WSW,240,0.0,0.0,94,0.00,,,0.00,weatherlink.com 1.10,2013-08-12 08:18:00,
2013-08-12 04:33:00,61.8,60.0,29.98,WSW,240,0.0,0.0,93,0.00,,,0.00,weatherlink.com 1.10,2013-08-12 08:33:00,
2013-08-12 04:48:00,61.5,60.0,29.98,WSW,240,0.0,0.0,94,0.00,,,0.00,weatherlink.com 1.10,2013-08-12 08:48:00,
2013-08-12 05:04:00,61.4,60.0,29.98,WSW,240,0.0,0.0,94,0.00,,,0.00,weatherlink.com 1.10,2013-08-12 09:04:00,
2013-08-12 05:18:00,61.5,60.0,29.99,WSW,240,0.0,0.0,94,0.00,,,0.00,weatherlink.com 1.10,2013-08-12 09:18:00,
2013-08-12 05:33:00,61.7,60.0,30.00,WSW,240,0.0,0.0,94,0.00,,,0.00,weatherlink.com 1.10,2013-08-12 09:33:00,
2013-08-12 05:48:00,61.9,61.0,30.00,WSW,240,0.0,0.0,95,0.00,,,0.00,weatherlink.com 1.10,2013-08-12 09:48:00,
2013-08-12 06:03:00,61.6,60.0,30.00,WSW,240,0.0,0.0,94,0.00,,,0.00,weatherlink.com 1.10,2013-08-12 10:03:00,
2013-08-12 06:18:00,61.4,60.0,30.00,WSW,240,0.0,0.0,94,0.00,,,0.00,weatherlink.com 1.10,2013-08-12 10:18:00,
2013-08-12 06:33:00,61.6,60.0,29.99,WSW,240,0.0,0.0,94,0.00,,,0.00,weatherlink.com 1.10,2013-08-12 10:33:00,
2013-08-12 06:48:00,62.5,61.0,29.99,WSW,240,0.0,0.0,95,0.00,,,0.00,weatherlink.com 1.10,2013-08-12 10:48:00,
2013-08-12 07:03:00,63.5,62.0,30.00,WSW,240,0.0,0.0,95,0.00,,,0.00,weatherlink.com 1.10,2013-08-12 11:03:00,
2013-08-12 07:18:00,65.3,64.0,30.00,WSW,240,0.0,0.0,96,0.00,,,0.00,weatherlink.com 1.10,2013-08-12 11:18:00,
2013-08-12 07:33:00,66.4,65.0,30.00,WSW,240,0.0,0.0,96,0.00,,,0.00,weatherlink.com 1.10,2013-08-12 11:33:00,
2013-08-12 07:48:00,67.4,66.0,30.00,WSW,240,0.0,0.0,95,0.00,,,0.00,weatherlink.com 1.10,2013-08-12 11:48:00,
2013-08-12 08:03:00,68.9,68.0,30.00,WSW,240,0.0,0.0,95,0.00,,,0.00,weatherlink.com 1.10,2013-08-12 12:03:00,
2013-08-12 08:18:00,70.6,69.0,30.00,North,352,0.0,0.0,95,0.00,,,0.00,weatherlink.com 1.10,2013-08-12 12:18:00,
2013-08-12 08:33:00,72.5,71.0,30.00,East,100,0.0,0.0,94,0.00,,,0.00,weatherlink.com 1.10,2013-08-12 12:33:00,
2013-08-12 08:48:00,74.3,72.0,30.00,SW,233,2.0,3.0,92,0.00,,,0.00,weatherlink.com 1.10,2013-08-12 12:48:00,
2013-08-12 09:04:00,76.5,73.0,30.00,South,184,1.0,3.0,89,0.00,,,0.00,weatherlink.com 1.10,2013-08-12 13:04:00,
2013-08-12 09:19:00,77.0,72.0,29.99,SSW,205,3.0,4.0,85,0.00,,,0.00,weatherlink.com 1.10,2013-08-12 13:19:00,
2013-08-12 09:34:00,79.0,72.0,29.99,ESE,119,1.0,4.0,80,0.00,,,0.00,weatherlink.com 1.10,2013-08-12 13:34:00,
2013-08-12 09:49:00,78.8,72.0,29.98,SSE,164,0.0,4.0,80,0.00,,,0.00,weatherlink.com 1.10,2013-08-12 13:49:00,
2013-08-12 10:04:00,79.6,73.0,29.98,East,88,1.0,4.0,79,0.00,,,0.00,weatherlink.com 1.10,2013-08-12 14:04:00,
2013-08-12 10:19:00,80.8,73.0,29.98,ESE,120,0.0,3.0,76,0.00,,,0.00,weatherlink.com 1.10,2013-08-12 14:19:00,
2013-08-12 10:34:00,79.2,72.0,29.98,East,83,0.0,0.0,78,0.00,,,0.00,weatherlink.com 1.10,2013-08-12 14:34:00,
2013-08-12 10:49:00,80.8,71.0,29.98,ENE,77,0.0,1.0,71,0.00,,,0.00,weatherlink.com 1.10,2013-08-12 14:49:00,
2013-08-12 11:04:00,80.6,71.0,29.98,NE,54,0.0,0.0,72,0.00,,,0.00,weatherlink.com 1.10,2013-08-12 15:04:00,
2013-08-12 11:19:00,81.7,71.0,29.98,East,84,0.0,3.0,71,0.00,,,0.00,weatherlink.com 1.10,2013-08-12 15:19:00,
2013-08-12 11:34:00,82.8,72.0,29.98,ESE,108,0.0,2.0,70,0.00,,,0.00,weatherlink.com 1.10,2013-08-12 15:34:00,
2013-08-12 11:49:00,82.6,70.0,29.97,South,173,0.0,3.0,65,0.00,,,0.00,weatherlink.com 1.10,2013-08-12 15:49:00,
2013-08-12 12:04:00,83.0,70.0,29.97,East,82,0.0,0.0,64,0.00,,,0.00,weatherlink.com 1.10,2013-08-12 16:04:00,
2013-08-12 12:19:00,84.6,72.0,29.96,East,79,0.0,0.0,66,0.00,,,0.00,weatherlink.com 1.10,2013-08-12 16:19:00,
2013-08-12 12:34:00,85.5,69.0,29.96,SW,224,0.0,0.0,58,0.00,,,0.00,weatherlink.com 1.10,2013-08-12 16:34:00,
2013-08-12 12:49:00,82.8,70.0,29.95,East,94,0.0,0.0,65,0.00,,,0.00,weatherlink.com 1.10,2013-08-12 16:49:00,
2013-08-12 13:04:00,81.9,70.0,29.95,ENE,60,0.0,0.0,67,0.00,,,0.00,weatherlink.com 1.10,2013-08-12 17:04:00,
2013-08-12 13:19:00,81.9,71.0,29.95,SW,230,0.0,1.0,70,0.00,,,0.00,weatherlink.com 1.10,2013-08-12 17:19:00,
2013-08-12 13:34:00,84.0,71.0,29.95,SW,220,2.0,4.0,65,0.00,,,0.00,weatherlink.com 1.10,2013-08-12 17:34:00,
2013-08-12 13:49:00,83.9,71.0,29.95,SW,225,4.0,6.0,65,0.00,,,0.00,weatherlink.com 1.10,2013-08-12 17:49:00,
2013-08-12 14:04:00,83.3,71.0,29.95,SW,231,9.0,10.0,67,0.00,,,0.00,weatherlink.com 1.10,2013-08-12 18:04:00,
2013-08-12 14:19:00,83.0,73.0,29.95,SSW,208,5.0,11.0,71,0.00,,,0.00,weatherlink.com 1.10,2013-08-12 18:19:00,
2013-08-12 14:34:00,83.4,72.0,29.94,SW,231,4.0,6.0,69,0.00,,,0.00,weatherlink.com 1.10,2013-08-12 18:34:00,
2013-08-12 14:49:00,84.0,73.0,29.94,South,191,3.0,6.0,69,0.00,,,0.00,weatherlink.com 1.10,2013-08-12 18:49:00,
2013-08-12 15:04:00,85.7,74.0,29.94,SW,216,0.0,6.0,67,0.00,,,0.00,weatherlink.com 1.10,2013-08-12 19:04:00,
2013-08-12 15:19:00,83.5,74.0,29.93,NNE,32,0.0,2.0,72,0.00,,,0.00,weatherlink.com 1.10,2013-08-12 19:19:00,
2013-08-12 15:34:00,79.9,73.0,29.94,North,359,0.0,3.0,79,0.00,,,0.00,weatherlink.com 1.10,2013-08-12 19:34:00,
2013-08-12 15:49:00,76.1,73.0,29.95,NNE,12,0.0,6.0,90,0.08,,,0.08,weatherlink.com 1.10,2013-08-12 19:49:00,
2013-08-12 16:04:00,75.7,73.0,29.95,WSW,257,0.0,2.0,91,0.12,,,0.12,weatherlink.com 1.10,2013-08-12 20:04:00,
2013-08-12 16:19:00,76.3,74.0,29.94,NNE,20,0.0,1.0,91,0.13,,,0.13,weatherlink.com 1.10,2013-08-12 20:19:00,
2013-08-12 16:34:00,78.0,75.0,29.94,NE,39,0.0,3.0,90,0.13,,,0.13,weatherlink.com 1.10,2013-08-12 20:34:00,
2013-08-12 16:49:00,78.3,75.0,29.94,East,96,2.0,5.0,89,0.05,,,0.13,weatherlink.com 1.10,2013-08-12 20:49:00,
2013-08-12 17:04:00,79.4,76.0,29.93,SSE,153,0.0,2.0,88,0.01,,,0.13,weatherlink.com 1.10,2013-08-12 21:04:00,
2013-08-12 17:19:00,80.0,76.0,29.93,SSE,165,0.0,2.0,86,0.00,,,0.13,weatherlink.com 1.10,2013-08-12 21:19:00,
2013-08-12 17:34:00,79.4,75.0,29.93,ENE,65,3.0,5.0,87,0.00,,,0.13,weatherlink.com 1.10,2013-08-12 21:34:00,
2013-08-12 17:50:00,77.7,74.0,29.93,East,80,5.0,6.0,89,0.00,,,0.13,weatherlink.com 1.10,2013-08-12 21:50:00,
2013-08-12 18:04:00,77.0,74.0,29.93,East,96,4.0,6.0,90,0.00,,,0.13,weatherlink.com 1.10,2013-08-12 22:04:00,
2013-08-12 18:19:00,77.2,74.0,29.93,ENE,63,3.0,6.0,90,0.00,,,0.13,weatherlink.com 1.10,2013-08-12 22:19:00,
2013-08-12 18:35:00,77.7,74.0,29.92,ENE,77,2.0,4.0,89,0.00,,,0.13,weatherlink.com 1.10,2013-08-12 22:35:00,
2013-08-12 18:50:00,77.2,74.0,29.92,ESE,103,2.0,3.0,90,0.00,,,0.13,weatherlink.com 1.10,2013-08-12 22:50:00,
2013-08-12 19:05:00,76.7,74.0,29.92,ESE,103,1.0,3.0,90,0.00,,,0.13,weatherlink.com 1.10,2013-08-12 23:05:00,
2013-08-12 19:20:00,76.2,74.0,29.92,ESE,104,1.0,3.0,91,0.00,,,0.13,weatherlink.com 1.10,2013-08-12 23:20:00,
2013-08-12 19:35:00,75.6,73.0,29.92,ESE,115,0.0,2.0,92,0.00,,,0.13,weatherlink.com 1.10,2013-08-12 23:35:00,
2013-08-12 19:50:00,75.0,73.0,29.92,East,100,0.0,1.0,92,0.00,,,0.13,weatherlink.com 1.10,2013-08-12 23:50:00,
2013-08-12 20:05:00,73.7,71.0,29.92,East,100,0.0,0.0,92,0.00,,,0.13,weatherlink.com 1.10,2013-08-13 00:05:00,
2013-08-12 20:20:00,73.1,70.0,29.92,NNE,16,0.0,1.0,91,0.00,,,0.13,weatherlink.com 1.10,2013-08-13 00:20:00,
2013-08-12 20:35:00,73.1,70.0,29.93,North,7,0.0,0.0,91,0.00,,,0.13,weatherlink.com 1.10,2013-08-13 00:35:00,
2013-08-12 20:50:00,72.5,70.0,29.93,North,7,0.0,0.0,91,0.00,,,0.13,weatherlink.com 1.10,2013-08-13 00:50:00,
2013-08-12 21:05:00,71.9,70.0,29.93,North,7,0.0,0.0,92,0.00,,,0.13,weatherlink.com 1.10,2013-08-13 01:05:00,
2013-08-12 21:20:00,72.0,70.0,29.93,North,7,0.0,0.0,92,0.00,,,0.13,weatherlink.com 1.10,2013-08-13 01:20:00,
2013-08-12 21:35:00,71.6,69.0,29.93,North,7,0.0,0.0,92,0.00,,,0.13,weatherlink.com 1.10,2013-08-13 01:35:00,
2013-08-12 21:50:00,71.2,69.0,29.93,North,7,0.0,0.0,92,0.00,,,0.13,weatherlink.com 1.10,2013-08-13 01:50:00,
2013-08-12 22:05:00,71.1,69.0,29.92,North,7,0.0,0.0,92,0.00,,,0.13,weatherlink.com 1.10,2013-08-13 02:05:00,
2013-08-12 22:20:00,70.7,68.0,29.92,North,7,0.0,0.0,92,0.00,,,0.13,weatherlink.com 1.10,2013-08-13 02:20:00,
2013-08-12 22:35:00,70.3,68.0,29.92,North,7,0.0,0.0,92,0.00,,,0.13,weatherlink.com 1.10,2013-08-13 02:35:00,
2013-08-12 22:50:00,70.2,68.0,29.92,North,7,0.0,0.0,93,0.00,,,0.13,weatherlink.com 1.10,2013-08-13 02:50:00,
2013-08-12 23:05:00,69.4,67.0,29.92,North,7,0.0,0.0,92,0.00,,,0.13,weatherlink.com 1.10,2013-08-13 03:05:00,
2013-08-12 23:20:00,69.1,67.0,29.91,North,7,0.0,0.0,92,0.00,,,0.13,weatherlink.com 1.10,2013-08-13 03:20:00,
2013-08-12 23:35:00,69.1,67.0,29.91,North,7,0.0,0.0,93,0.00,,,0.13,weatherlink.com 1.10,2013-08-13 03:35:00,